Regional Weather Roundup
Issued by NWS Little Rock, AR

Home | Current Version | Previous Version | Text Only | Print | Product List | Glossary Off
Versions: 1 2 3 4 5 6 7 8 9 10 11 12 13 14 15 16 17 18 19 20 21 22 23 24 25 26 27 28 29 30 31 32 33 34 35 36 37 38 39 40 41 42 43 44 45 46 47 48 49 50

000
ASUS44 KLZK 291805
RWRLZK

WEATHER ROUNDUP FOR ARKANSAS
NATIONAL WEATHER SERVICE LITTLE ROCK AR
100 PM CDT FRI AUG 29 2014

NOTE: "FAIR" INDICATES FEW OR NO CLOUDS BELOW 12,000 FEET WITH NO
SIGNIFICANT WEATHER AND/OR OBSTRUCTIONS TO VISIBILITY.

ARZ001-003-010-029-291900-
NORTHWEST ARKANSAS

CITY           SKY/WX    TMP DP  RH WIND       PRES   REMARKS
FAYETTEVILLE   MOSUNNY   86  66  51 W10       29.94F HX  88
6HR MIN TEMP:  73; 6HR MAX TEMP:  86;

FORT SMITH     MOSUNNY   86  69  56 W9        29.91F THUNDER HX  90
6HR MIN TEMP:  75; 6HR MAX TEMP:  90;

HARRISON       LGT RAIN  78  70  76 S5        29.95F
6HR MIN TEMP:  72; 6HR MAX TEMP:  87; 6HR PCP:  0.12;

BENTONVILLE    MOSUNNY   84  64  51 W10G16    29.95F HX  86
6HR MIN TEMP:  72; 6HR MAX TEMP:  84;

ROGERS         MOSUNNY   85  65  51 SW14G25   29.95F HX  86
6HR MIN TEMP:  71; 6HR MAX TEMP:  85;

SILOAM SPGS    PTSUNNY   82  64  54 SW9       29.96S
6HR MIN TEMP:  72; 6HR MAX TEMP:  82;

HIGHFILL       MOSUNNY   87  66  49 SW9       29.94F HX  89
6HR MIN TEMP:  72; 6HR MAX TEMP:  87; 6HR PCP: TRACE;

SPRINGDALE     PTSUNNY   86  66  51 SW12G23   29.96F HX  88
$$

ARZ004-005-016-291900-
NORTH CENTRAL ARKANSAS

CITY           SKY/WX    TMP DP  RH WIND       PRES   REMARKS
BATESVILLE     PTSUNNY   86  66  51 S6        29.96F HX  88
6HR MIN TEMP:  68; 6HR MAX TEMP:  88;

FLIPPIN        PTSUNNY   81  64  57 S7        29.95S
6HR MIN TEMP:  66; 6HR MAX TEMP:  82;

MTN HOME       CLOUDY    82  67  60 S10       29.95S
6HR MIN TEMP:  70; 6HR MAX TEMP:  87;

$$

ARZ040-041-291900-
WEST CENTRAL ARKANSAS

CITY           SKY/WX    TMP DP  RH WIND       PRES   REMARKS
MENA           PTSUNNY   84  72  65 CALM      29.97S HX  89
MOUNT IDA      PTSUNNY   86  70  58 VRB6      29.94F HX  90
6HR MIN TEMP:  72; 6HR MAX TEMP:  86;

$$

ARZ009-017-025-026-028-291900-
NORTHEAST ARKANSAS

CITY           SKY/WX    TMP DP  RH WIND       PRES   REMARKS
CORNING        LGT RAIN  91  68  46 S13G18    29.95F HX  95
JONESBORO      SUNNY     92  70  48 S14G21    29.96S HX  97
6HR MIN TEMP:  70; 6HR MAX TEMP:  93;

NEWPORT        PTSUNNY   88  70  55 S9        29.97F HX  93
6HR MIN TEMP:  70; 6HR MAX TEMP:  90;

WALNUT RIDGE   SUNNY     90  70  51 S18       29.93F HX  95
6HR MIN TEMP:  70; 6HR MAX TEMP:  91;

BLYTHEVILLE    SUNNY     91  71  51 S7        29.97F HX  97
6HR MIN TEMP:  73; 6HR MAX TEMP:  91;

$$

ARZ022-023-033-042-044-291900-
CENTRAL ARKANSAS

CITY           SKY/WX    TMP DP  RH WIND       PRES   REMARKS
LITTLE ROCK    MOSUNNY   89  70  53 SW7       29.95F HX  94
6HR MIN TEMP:  73; 6HR MAX TEMP:  89;

N LITTLE ROCK  MOSUNNY   88  72  58 SW12G18   29.95F HX  95
6HR MIN TEMP:  76; 6HR MAX TEMP:  89;

JACKSONVILLE   MOSUNNY   85  73  67 SE7       29.96F HX  92
6HR MIN TEMP:  70; 6HR MAX TEMP:  88; 6HR PCP: TRACE;

SEARCY         MOSUNNY   89  73  59 W12       29.97F HX  96
6HR MIN TEMP:  68; 6HR MAX TEMP:  90;

HOT SPRINGS    MOSUNNY   88  70  55 W7        29.95F HX  93
6HR MIN TEMP:  73; 6HR MAX TEMP:  89;

RUSSELLVILLE     N/A     86  72  62 VRB5      29.93F HX  92
6HR MIN TEMP:  73; 6HR MAX TEMP:  86; 6HR PCP: TRACE;

CLINTON        PTSUNNY   88  73  62 SW3       29.94F HX  96
$$

ARZ036-291900-
EAST ARKANSAS

CITY           SKY/WX    TMP DP  RH WIND       PRES   REMARKS
WEST MEMPHIS   PTSUNNY   88  73  61 SW5       29.96F HX  95
6HR MIN TEMP:  71; 6HR MAX TEMP:  91;

$$

ARZ050-053-066-070-073-291900-
SOUTHWEST ARKANSAS

CITY           SKY/WX    TMP DP  RH WIND       PRES   REMARKS
ARKADELPHIA    FAIR      89  74  61 S7        29.95F HX  97
6HR MIN TEMP:  73; 6HR MAX TEMP:  91;

CAMDEN         PTSUNNY   90  72  55 S9        29.95F HX  96
TEXARKANA      PTSUNNY   88  69  53 S7        29.94F HX  92
6HR MIN TEMP:  74; 6HR MAX TEMP:  90;

EL DORADO      PTSUNNY   87  72  60 SE7       29.96F HX  93
6HR MIN TEMP:  72; 6HR MAX TEMP:  88;

DE QUEEN       CLOUDY    84  73  69 SW6       29.92F HX  90
6HR MIN TEMP:  73; 6HR MAX TEMP:  86;

$$

ARZ056-057-069-291900-
SOUTHEAST ARKANSAS

CITY           SKY/WX    TMP DP  RH WIND       PRES   REMARKS
PINE BLUFF     MOSUNNY   89  70  53 SW9       29.96F HX  94
6HR MIN TEMP:  71; 6HR MAX TEMP:  89; 6HR PCP: TRACE;

STUTTGART      MOSUNNY   90  73  58 S8        29.98F HX  98
6HR MIN TEMP:  73; 6HR MAX TEMP:  90; 6HR PCP:  0.21;

MONTICELLO     PTSUNNY   89  72  56 VRB5      29.96F HX  96
6HR MIN TEMP:  73; 6HR MAX TEMP:  90;


$$





USA.gov is the U.S. government's official web portal to all federal, state and local government web resources and services.